You are here:
  • Home »
  • Tender »
  • Open Tender Enquiry

Open Tender Enquiry

Sl.No. Enquiry No. Date Due on Short Description
16701 2/ PE210834/1 20/10/2021 06/12/2021 MECHANICAL SEAL
16702 2/ PE210840/1 20/10/2021 06/12/2021 SPARES FOR COOLING TOWER
16703 GEM/2021/B/1637741 29-10-21 19-11-21 Power Cable
16704 GEM/2021/B/1638550 30-10-21 01-11-21 Desktop Computers
16705 GEM/2021/B/1638640 30-10-21 20-11-21 LED tube light
16706 GEM/2021/B/1638854 30-10-21 20-11-21 Lockers
16707 1/ 210850/8 26.10.2021 30.11.2021 D.G.Set Spares
16708 1/ 210960/8 26.10.2021 30.11.2021 Induction Motor
16709 1/ 210987/8 26.10.2021 30.11.2021 Coarse Pebbles
16710 1/ 210989/8 26.10.2021 30.11.2021 Induction Motor
16711 1/ 210995/8 26.10.2021 30.11.2021 M.S. Flat
16712 GEM/2021/B/1639622 30-10-21 20-11-21 Bathing Soap
16713 1/ PE210238/7 26.10.2021 29.11.2021 Bearing
16714 1/ PE210735/1 25.10.2021 29.11.2021 M.S. Perforated Sheet
16715 1/ PE210748/1 25.10.2021 29.11.2021 NGR Spares
16716 1/ PE210750/1 25.10.2021 29.11.2021 FRP Gratings
16717 3/ PE210306/7 30/10/2021 08/12/2021 Compression type Load Cell
16718 3/ PE210846/1 30/10/2021 08/12/2021 Brake Disc (PC)
16719 3/ PE211012/8 30/10/2021 08/12/2021 Silicon Sealent
16720 3/ PE210296/7 30/10/2021 08/12/2021 Green bamboo
16721 3/ PE210304/7 30/10/2021 08/12/2021 Cushion Valve
16722 3/ PE210302/7 29/10/2021 06/12/2021 Kit Breather
16723 3/ PE210300/7 29/10/2021 06/12/2021 Slice Piece
16724 3/ PE210875/1 29/10/2021 06/12/2021 Piston Ring Set
16725 3/ PE210297/7 29/10/2021 06/12/2021 Screw and Nut
16726 3/ PE211022/8 29/10/2021 06/12/2021 Insert Bushing
16727 3/ PE210261/7 29/10/2021 06/12/2021 Sensor-Temp
16728 2/ PE210982/8 21/10/2021 01/12/2021 PRE FILTER
16729 2/ PE210981/8 21/10/2021 01/12/2021 HORIZONTAL CENTRIFUGAL PUMP
16730 2/ PE210996/8 21/10/2021 01/12/2021 SPARES FOR BOILER
16731 2/ PE210833/1 21/10/2021 01/12/2021 AGITATOR ASSEMBLY
16732 3/ PE210904/8 01/11/2021 09/12/2021 Switch Battery
16733 3/ PE210305/7 01/11/2021 09/12/2021 Steering Unit
16734 3/ PE210299/7 01/11/2021 09/12/2021 Sensor Fluid Level
16735 3/ PE210871/1 01/11/2021 09/12/2021 Tyre & Tube
16736 3/ PE210888/1 02/11/2021 09/12/2021 Converter Kit
16737 3/ PE211029/8 01/11/2021 09/12/2021 Dial Test Indicator
16738 3/ PE210301/7 01/11/2021 09/12/2021 Wire Rope
16739 3/ PE210873/1 01/11/2021 09/12/2021 Touch Wood
16740 3/ PE210303/7 01/11/2021 09/12/2021 Spares for Caplamp
16741 3/ PE211024/8 01/11/2021 09/12/2021 Bonded Seal
16742 1- PE210566-1 05/10/2021 16/11/2021 SPANNER
16743 2- PE210587-1 11/10/2021 16/11/2021 AMMONIA COMPRESSURE SPARES
16744 2- PE210596-1 12/10/2021 16/11/2021 SINGLE DECK RECTANGULAR SCREEN.
16745 2- PE210598-1 13/10/2021 16/11/2021 SPARE RUBBER DIAPHRAGM
16746 2- PE210610-1 20/10/2021 19/11/2021 COMPRESSOR
16747 3- PE210579-1 06/10/2021 12/11/2021 HYDRALIC POWER HACK SAW MACHINE
16748 2- PE210600-1 13/10/2021 16/11/2021 Pressure transmitter
16749 1- PE210617-1 28/10/2021 26/11/2021 parting tools
16750 1- PE210619-1 28/10/2021 26/11/2021 Break fast coupons
16751 1- PE210623-1 28/10/2021 16/11/2021 Furniture
16752 1- PE210631-1 30/10/2021 26/11/2021 3-Phase squirrel cage Induction Motor
16753 2- PE210599-1 13/10/2021 16/11/2021 Soleniod Valve
16754 2- PE210615-1 28/10/2021 26/11/2021 Cartridge
16755 2- PE210618-1 28/10/2021 26/11/2021 Repulper Gear Box
16756 2- PE210620-1 28/10/2021 26/11/2021 Girt gear tools
16757 2- PE210621-1 28/10/2021 26/11/2021 SPRING LOADED C.I
16758 2- PE210626-1 28/10/2021 26/11/2021 welding machine
16759 3- PE210616-1 28/10/2021 26/11/2021 Portable Grinding Machine
16760 2/ PE210971/8 18/10/2021 06/12/2021 WORM GEAR BOX
16761 2/ PE210728/1 18/10/2021 06/12/2021 BARREL ASSEMBLY
16762 2/ PE210883/8 18/10/2021 06/12/2021 SPARE FOR DIAPHRAGM VALVE
16763 2/ PE210976/8 18/10/2021 06/12/2021 FLUID COUPLING
16764 1/ PE210573/1 Corrigendum-I 09.11.2021 16.11.2021 Variable frequency drive
16765 1/ PE210570/1 Corrigendum-I 09.11.2021 19.11.2021 Gear oprated rolling shutter
16766 2/ PE210855/1 05/11/2021 13/12/2021 TRUNION FOR DRUM FILTER
16767 2/ PE210856/1 05/11/2021 13/12/2021 V GROOVE PULLEY
16768 2/ PE210862/1 05/11/2021 13/12/2021 GEAR COUPLING
16769 2/ PE210861/1 05/11/2021 13/12/2021 SLEEVE & LANTERN RING
16770 2/ PE210858/1 05/11/2021 13/12/2021 SPARE CI BONNET ASSEMBLY
16771 2/ PE210857/1 05/11/2021 13/12/2021 CHEMICALS
16772 2/ PE210863/1 05/11/2021 13/12/2021 SPARE DIAPHRAGM FOR KB TYPE VALVE
16773 2/ PE210860/1 05/11/2021 13/12/2021 PROPELLER RH FOR LPS TANK
16774 1/ PE210533/1 Corrigendum-I -- 23.11.2021 Reporting books 125 sets
16775 1- PE210613-1 28/10/2021 26/11/2021 Touch interface
16776 2- PE210611-1 28/10/2021 26/11/2021 electric cable
16777 2- PE210612-1 28/10/2021 26/11/2021 250 AMPS SILICON POWER DIODE
16778 2- PE210625-1 28/10/2021 26/11/2021 COMPRESSOR
16779 3- PE210614-1 28/10/2021 26/11/2021 Tribol Grease
16780 2- PE210632-1 02/11/2021 29/11/2021 Diaphragm
16781 3- PE210616-1 28/10/2021 26/11/2021 Grinding Machine
16782 1- PE210631-1 30/10/2021 26/11/2021 3-Phase squirrel cage Induction Motor
16783 1/ PE200325/1 Corrigendum-I Tender opened Tender cancelled Street light junction box
16784 1/ PE210184/1 Corrigendum-I Tender opened Tender cancelled High energy lithium battery
16785 1/ PE210348/1 Corrigendum-I Tender opened Tender cancelled Vacuum pump spares
16786 2/ PE210171/1 Corrigendum Tender opened Tender cancelled Magnetic flow meters
16787 2/ PE210203/1 Corrigendum-I Tender opened Tender cancelled Plummer block
16788 2/ PE210463/1 Corrigendum-1 Tender opened Tender cancelled Diaphragm valves
16789 2/ PE210342/1 Corrigendum-I Tender opened Tender cancelled Gear box for product drying filter
16790 1/ PE210372/1 Corrigendum-I Tender opened Tender cancelled Control transformers
16791 3/ PE210360/1 Corrigendum-I Tender opened Tender cancelled Hydraulic spares
16792 DUE DATE EXTENSION OF 2- PE210977-8 08.10.2021 25.11.2021 Caulking Rope
16793 2/ PE210984/8 28/10/2021 07/12/2021 SPARES FOR PUMP
16794 2/ PE210731/1 28/10/2021 07/12/2021 ECCENTRIC BUSH
16795 2/ PE210730/8 28/10/2021 07/12/2021 JAW CLUTCH COUPLING
16796 2/ PE210998/8 28/10/2021 07/12/2021 LEVEL TRANSMITTER
16797 1/ PE210559/1 Corrigendum-I 05.11.2021 26.11.2021 Temperature Scanner
16798 2/ PE210596/1 Corrigendum-I 16.11.2021 07.12.2021 Single deck rectangular screen
16799 2/ PE210525/1 Corrigendum-I Tender opened Tender cancelled Spares for KC-09 Kirkskar
16800 2/ PE210266/1 Corrigendum-I Tender opened Tender cancelled Taflon and rubber washers
16801 2/ PE210273/1 Corrigendum-I Tender opened Tender cancelled PTFE Flex-O-Seal Gasket
16802 1/ PE210284/1 Corrigendum-I Tender opened Tender cancelled Conveyor belt fasteners
16803 2/ PE210429/1 Corrigendum-I Tender opened Tender cancelled Submersible pump
16804 1/ PE210280/1 Corrigendum-I Tender opened Tender cancelled Buta seal of 2mm thick
16805 GEM/2021/B/1671599 13-11-2021 07-12-2021 SHELL LINER
16806 GEM/2021/B/1670614 13-11-2021 07-12-2021 Spares for Schneider PLC
16807 GEM/2021/B/1684806 18-11-2021 13-12-2021 Bleaching Powder Solution Dosing Tank
16808 GEM/2021/B/1685022 18-11-2021 13-12-2021 Alum Preparation Tank
16809 GEM/2021/B/1686182 18-11-2021 13-12-2021 LR-115 Film Type: 2
16810 GEM/2021/B/1686691 18-11-2021 13-12-2021 Spares For Rotary Kiln
16811 GEM/2021/B/1686898 18-11-2021 13-12-2021 Product Precipitation Tank
16812 GEM/2021/B/1687096 18-11-2021 13-12-2021 Pachuca Roof Cover
16813 GEM/2021/B/1687190 18-11-2021 13-12-2021 LED Fluorimeter with Measurement kit
16814 GEM/2021/B/1687254 18-11-2021 02-12-2021 Floating Aerators (Q3)
16815 GEM/2021/B/1684191 18-11-21 09-12-21 Automatic Voltage Regulator
16816 GEM/2021/B/1683152 17-11-21 08-12-21 Small Induction Heater for Bearing Heating
16817 GEM/2021/B/1680001 16-11-21 07-12-21 Tri Sodium Phosphate
16818 GEM/2021/B/1682365 17-11-21 08-12-21 Medium Coarse Sand
16819 GEM/2021/B/1682901 17-11-21 08-12-21 Araldite And Hardner
16820 GEM/2021/B/1685844 18-11-21 09-12-21 Casing of Ventilation Fan
16821 GEM/2021/B/1686463 18-11-21 09-12-21 Mild Steel Square Bar
16822 1/ PE210911new/1 12/11/2021 15/12/2021 D.A Gas
16823 1- PE210630new-1 30/10/2021 26/11/2021 FRLS
16824 1- PE210634new-1 03/11/2021 26/11/2021 M.S. SOLID SQUARE BARS
16825 1- PE210640new-1 11/11/2021 10/12/2021 Log Book
16826 1- PE210641new-1 11/11/2021 10/12/2021 STATIONARY BOOKS
16827 1/ PE210292new/7 17.11.2021 23.12.2021 Printing Items
16828 1/ PE210293new/7 17.11.2021 23.12.2021 Printing Items
16829 1/ PE210313new/7 17.11.2021 23.12.2021 Printing Items
16830 1/ PE210745new/1 17.11.2021 23.12.2021 Printing Items
16831 1/ PE210900new/1 17.11.2021 23.12.2021 Printing Items
16832 1/ PE210999new/8 17.11.2021 23.12.2021 Printing Items
16833 1/ PE211053new/8 17.11.2021 23.12.2021 Printing Items
16834 2/ PE210558new/1 Corrigendum-I 05.11.2021 30.11.2021 V-Groove pulley
16835 3/ PE210506new/1 Corrigendum-II 19.11.2021 30.11.2021 Hydralic drum carrier capacity
16836 2/ PE210567new/1 Corrigendum-I 09.11.2021 30.11.2021 HT Bolt with nut
16837 1/ PE210582new/1 Corrigendum-I 12.11.2021 30.11.2021 3 Phase squirrel cage induction motor
16838 Bid No.GEM/2021/B/1647872new 03.11.2021 24.11.2021 Variable Frequency Drive
16839 Bid No.GEM/2021/B/1661764new 10.11.2021 01.12.2021 Feluwa pump rubber damper valve seat
16840 Bid No.GEM/2021/B/1665045new 11.11.2021 02.12.2021 Supply of rubber cords
16841 Bid No.GEM/2021/B/1669976new 12.11.2021 03.12.2021 Sensitive earth fault reelay
16842 Bid No.GEM/2021/B/1670076new 12.11.2021 03.12.2021 150KW 3 phase sq.Induction motor
16843 Bid No.GEM/2021/B/1677448new 16.11.2021 07.12.2021 Rod mill and discharge head liners
16844 Bid No.GEM/2021/B/1681032new 17.11.2021 08.12.2021 Spares for intake pumps
16845 Bid No.GEM/2021/B/1695354new 23.11.2021 14.12.2021 Floamin 4995/Magnafloc /611
16846 Bid No.GEM/2021/B/1695851new 23.11.2021 14.12.2021 DE and NDE shields of Motor
16847 Bid No.GEM/2021/B/1696052new 23.11.2021 14.12.2021 7.5KW, 3 phase squirrel cage induction motor
16848 Bid No.GEM/2021/B/1697225new 23.11.2021 14.12.2021 Light Diesel oil
16849 GEM/2021/B/1688627new 19-11-2021 29-11-2021 Online Ups-IS:9000 (Q3)
16850 GEM/2021/B/1690087new 20-11-2021 14-12-2021 Screen Panel for D. D. S 25 Sq. mm
16851 GEM/2021/B/1690206new 20-11-2021 14-12-2021 Conical Seal wiper
16852 GEM/2021/B/1690256new 20-11-2021 14-12-2021 Pneumatic Actuated Diaphragm Valve
16853 GEM/2021/B/1690360new 20-11-2021 14-12-2021 Manual Operated Straight through CI Diaphragm Valve
16854 GEM/2021/B/1692918new 22-11-2021 14-12-2021 CI Gate Valve; SIZE: 3" / 80NB
16855 GEM/2021/B/1692963new 22-11-2021 14-12-2021 SS Ball Valve Flange Type
16856 GEM/2021/B/1693075new 22-11-2021 14-12-2021 SNUB Pulley, Belt Width: 1400 mm
16857 GEM/2021/B/1693172new 22-11-2021 14-12-2021 Gear Coupling with Pilot Bore
16858 GEM/2021/B/1693237new 22-11-2021 14-12-2021 SS Ball Valve
16859 GEM/2021/B/1694932new 22-11-2021 14-12-2021 Spares For Kirloskar Pump